STARLINK-4527 (53436 NORAD) Tracking and Keplerian Element Data

This shows tracking and keplerian element data for the satellite.

Feedback or suggestion? Click here.




ElementValue
Catalog53436
NameSTARLINK-4527
Epoch Orbit799
Epoch Day270.25001157
Epoch Year2022
RAAN10.2111
Inclination53.217
Eccentricity0.0002757
Argument of Perigee13.1184
Mean Anonmoly172.2767
Mean Motion15.73155566
Decay Rate0.00061143
L11 53436U 22097BA 22270.25001157 .00061143 00000+0 43768-3 0 9990
L22 53436 53.2170 10.2111 0002757 13.1184 172.2767 15.73155566 7997

Live tracking and technical data element details for STARLINK-4527 (NORAD 53436). STARLINK-4527 can be tracked NOW for your location showing map with azimuth and elevation plus other details from your city location.

Track the satellite on the map from your city or location and see movement details for azimuth, elevation, latitude, longitude, range, height, and movement on the map or in text.







IsCatalogInMostPopularTable: catalog: 53436, numindb: 5
Update: records affected: 1



GetName: 53436 STARLINK-4527

Hit Count: updated at: Fri, 30 Sep 2022 03:33:35 GMT